sat.trackr.live / text

‹ back to catalog

ONEWEB-0081

NORAD 45429 · 2020-020F

PAYLOAD ACTIVE UNKNOWN

§ Identity

Operator
Country
UK
Launch date
2020-03-21
Launch site
TYMSC
Launch vehicle
Mass (kg)
RCS (m²)

Purposes: comms

External: N2YO · Heavens-Above · Gunter

§ Orbital elements

Epoch: 2026-05-25T02:36:11.744928Z

Period
109.80 min
Inclination
87.8912°
Eccentricity
0.0001962
Mean motion
13.11418663 rev/d
Perigee alt
1,216.2 km
Apogee alt
1,219.2 km
Semi-major
7,595.8 km
B*
1.0656e-3
RAAN
25.6581°
Arg perigee
78.9974°
Mean anomaly
281.1375°
Rev number
29,971

§ Raw data

ONEWEB-00811 45429U 20020F   26145.10846927  .00000390  00000+0  10656-2 0  99942 45429  87.8912  25.6581 0001962  78.9974 281.1375 13.11418663299719

JSON: /api/v1/satellites/45429 · /tle

For live sub-satellite position, see the globe view (requires WebGL).

§ Visibility from observer

Set your observer location to see the next 7 days of passes ≥ 10°. The values pass through the URL so the page stays shareable.

No JS? Fill the form by hand. The geolocation button needs JavaScript.